Indianapolis, IN

2:38 AM EDT on October 23, 2019 (GMT -0400)
Indianapolis International

Weather History for KIND - June, 2019

Change the Weather History Date:

Wednesday, June 12, 2019

  Actual Average Record
Temperature  
Mean Temperature 67 °F 71 °F  
Max Temperature 76 °F 81 °F 96 °F (1894)
Min Temperature 58 °F 61 °F 42 °F (1903)
Degree Days  
Heating Degree Days 0 0  
Month to date heating degree days 0 13  
Since 1 June heating degree days 0 13  
Since 1 July heating degree days 5376 5375  
Cooling Degree Days 2 7  
Month to date cooling degree days 60 68  
Year to date cooling degree days 171 152  
Since 1 June cooling degree days 60 68  
Growing Degree Days 16 (Base 50)    
Moisture  
Dew Point 50 °F    
Average Humidity 57    
Maximum Humidity 77    
Minimum Humidity 36    
Precipitation  
Precipitation T in 0.13 in 3.04 in (2005)
Month to date precipitation 1.23 1.71  
Year to date precipitation 22.87 19.11  
Snow  
Snow 0.00 in 0.00 in T in (1994)
Month to date snowfall 0.0 0.0  
Since 1 June snowfall 0.0 0.0  
Since 1 July snowfall 19.4 25.9  
Snow Depth 0.00 in    
Sea Level Pressure  
Sea Level Pressure 29.93 in    
Wind  
Wind Speed 6 mph (SSW)    
Max Wind Speed 30 mph    
Max Gust Speed 40 mph    
Visibility 10 miles    
Events Rain    
T = Trace of Precipitation, MM = Missing Value Source: NWS Daily Summary

Daily Weather History Graph

Daily Weather History Graph

Search for Another Location

Airport or City:

Astronomy

Jun. 12, 2019 Rise Set
Actual Time 6:16 AM EDT 9:13 PM EDT
Civil Twilight 5:44 AM EDT 9:46 PM EDT
Nautical Twilight 5:03 AM EDT 10:27 PM EDT
Astronomical Twilight 4:15 AM EDT 11:14 PM EDT
Moon 4:21 PM EDT (6/12) 3:29 AM EDT (6/12)
Length of Visible Light 16h 01m
Length of Day
14h 56m
Waxing Gibbous, 76% of the Moon is Illuminated
Jun 12
Waxing Gibbous
Jun 17
Full
Jun 25
Last Quarter
Jul 2
New
Jul 9
First Quarter

Hourly Weather History & Observations

Time (EDT) Temp. Dew Point Humidity Pressure Visibility Wind Dir Wind Speed Gust Speed Precip Events Conditions
12:54 AM 63.0 °F 48.9 °F 60% 30.09 in 10.0 mi South 5.8 mph - N/A   Partly Cloudy
1:54 AM 61.0 °F 48.9 °F 64% 30.06 in 10.0 mi WSW 3.5 mph - N/A   Clear
2:54 AM 61.0 °F 48.9 °F 64% 30.06 in 10.0 mi Calm Calm - N/A   Clear
3:54 AM 59.0 °F 51.1 °F 75% 30.04 in 10.0 mi SE 3.5 mph - N/A   Clear
4:54 AM 57.9 °F 50.0 °F 75% 30.04 in 10.0 mi Calm Calm - N/A   Scattered Clouds
5:54 AM 59.0 °F 50.0 °F 72% 30.04 in 10.0 mi Calm Calm - N/A   Mostly Cloudy
6:54 AM 57.9 °F 50.0 °F 75% 30.03 in 10.0 mi East 4.6 mph - N/A   Mostly Cloudy
7:54 AM 61.0 °F 52.0 °F 72% 30.01 in 10.0 mi East 6.9 mph - N/A   Mostly Cloudy
8:54 AM 66.9 °F 51.1 °F 57% 30.00 in 10.0 mi ESE 3.5 mph - N/A   Mostly Cloudy
9:54 AM 69.1 °F 51.1 °F 53% 29.98 in 10.0 mi SE 4.6 mph - N/A   Partly Cloudy
10:54 AM 72.0 °F 50.0 °F 46% 29.95 in 10.0 mi ESE 11.5 mph - N/A   Scattered Clouds
11:54 AM 72.0 °F 51.1 °F 48% 29.93 in 10.0 mi South 6.9 mph 17.3 mph N/A   Scattered Clouds
12:54 PM 73.9 °F 51.1 °F 45% 29.91 in 10.0 mi South 8.1 mph - N/A   Mostly Cloudy
1:54 PM 73.9 °F 50.0 °F 43% 29.89 in 10.0 mi SSE 5.8 mph - N/A   Mostly Cloudy
2:54 PM 73.9 °F 48.0 °F 40% 29.86 in 10.0 mi Calm Calm - N/A   Mostly Cloudy
3:54 PM 75.0 °F 48.0 °F 38% 29.83 in 10.0 mi Calm Calm - N/A   Mostly Cloudy
4:54 PM 75.0 °F 46.9 °F 37% 29.81 in 10.0 mi SW 9.2 mph - N/A   Overcast
6:54 PM 71.1 °F 51.1 °F 49% 29.81 in 10.0 mi West 12.7 mph - N/A   Overcast
7:54 PM 69.1 °F 48.9 °F 49% 29.79 in 10.0 mi WSW 5.8 mph - N/A   Overcast
8:54 PM 68.0 °F 48.9 °F 50% 29.78 in 10.0 mi WSW 6.9 mph - N/A   Overcast
9:54 PM 63.0 °F 52.0 °F 67% 29.81 in 10.0 mi West 24.2 mph 33.4 mph 0.00 in Rain Light Rain
10:54 PM 59.0 °F 52.0 °F 78% 29.81 in 10.0 mi WNW 16.1 mph 23.0 mph 0.00 in   Overcast
11:54 PM 59.0 °F 52.0 °F 78% 29.80 in 10.0 mi WNW 4.6 mph - 0.00 in   Overcast